Погода в Яремче

Украина / Ивано-Франковская область     48°26′55″N   24°33′11″E
темп.,
°C
ветер,
м/с
пор.,
м/с
влажн.,
%
обл.,
%
осадки,
мм/ч
давл.,
гПа
погр.,
м
6 декабря, пн
пн623:00−1юз1196100 0.0 100817
02:00−5юз2296100 0.1 100912
05:00−1юз1195100 0.0 100726
08:00−4з1197100 0.0 100810
11:00−1всв1197100 0.0 1008145
14:00−1ссв1198100 1.5 1007210
17:00−2с129999 2.1 1009124
20:00−3сз119899 2.4 101066
7 декабря, вт
вт723:00−3зюз1197100 0.1 101129
02:00−4ссз1299100 0.2 101162
05:00−4с1298100 0.2 1011145
08:00−4с1298100 1.2 1011122
11:00−3ссв1296100 0.9 1011282
14:00−3ссв2396100 1.8 1010349
17:00−4с1298100 1.4 1011203
20:00−5ссз119899 2.4 101339
8 декабря, ср
ср823:00−5ссз1298100 0.4 101364
02:00−6сз119981 0.9 101433
05:00−9зюз219878 0.1 101513
08:00−7зюз229687 0.2 101438
11:00−4сз009254 0.0 1013184
14:00−2ссв119259 0.0 1011247
17:00−4зсз119995 0.0 101361
20:00−3ююз009680 0.0 101214
9 декабря, чт
чт923:00−8юз229617 0.0 101414
02:00−8юз2295100 0.0 101321
05:00−6юз2293100 0.0 101317
08:00−7ююз22926 0.0 101318
11:000ююв12925 0.0 1010108
14:00+1ююв1210094 0.0 100773
17:000ю1298100 0.0 100861
20:00−3ю229594 0.0 100725
10 декабря, пт
пт1023:00−4ююз228999 0.0 100616
02:00−1юз3282100 0.0 100533
05:00−2зюз2290100 0.0 100521
08:00−1юз2192100 0.0 100518
11:00+1юз23100100 0.1 1005103
14:00+1ююз2410090 0.6 1005143
17:00+1юз5148622 0.1 1006904
20:00+1юз617814 0.1 1007828